www.pogodaiklimat.ru

Погода и климат >> Архив погоды >> Индонезия >> Муаратевех


ПОГОДА в Муаратевехе

  • Прогноз погоды в Муаратевехе
  • Монитор погоды в Муаратевехе

АРХИВ ПОГОДЫ в Муаратевехе

Время (UTC), дата Ветер
(напр.,м/с)
 
Видим.   Явления Облачность Т
(С)
Тd
(С)
f
(%)
Тe
(С)
Тes
(С)
Комфортность P
(гПа)
Po
(гПа)
Тmin
(С)
Tmax
(С)
R
(мм)
R24
(мм)
S
(см)
03 14.09 штиль 0 300 м дым {туман} ?/? +27.9 +22.1 71 +36 +36 очень
душно
1013.6 1009.2
06 14.09 штиль 0 500 м дым {туман} ?/? +32.5 +21.6 53 +41 +41 опасность
перегрева
1010.6 1006.2
09 14.09 штиль 0 500 м дым {туман} ?/? +31.7 +20.7 52 +39 +39 очень
душно
1009.6 1005.2
12 14.09 штиль 0 500 м дым {туман} ?/? +26.8 +23.2 81 +36 +36 очень
душно
1011.0 1006.6 +34.4
15 14.09 штиль 0 500 м дым {туман} ?/? +24.0 +22.1 89 +31 +31 очень
душно
1011.9 1007.6
00 15.09 штиль 0 300 м дым {туман} ?/? +21.8 +20.5 92 +28 +28 душно 1012.8 1008.5 +21.0
03 15.09 штиль 0 200 м дым {туман} ?/? +27.6 +22.5 74 +36 +36 очень
душно
1011.7 1007.4
06 15.09 штиль 0 200 м дым {туман} ?/? +31.4 +22.0 57 +40 +40 очень
душно
1008.7 1004.4
09 15.09 штиль 0 300 м дым {туман} ?/? +31.6 +22.6 59 +41 +41 опасность
перегрева
1007.9 1003.9
12 15.09 штиль 0 200 м дым {туман} ?/? +26.6 +23.8 85 +37 +37 очень
душно
1009.4 1005.0 +32.7
15 15.09 штиль 0 200 м дым {туман} ?/? +24.6 +23.0 91 +33 +33 очень
душно
1011.2 1006.9
00 16.09 штиль 0 300 м дым {туман} ?/? +22.9 +21.9 94 +31 +31 очень
душно
1012.4 1008.0 +21.8
03 16.09 штиль 0 300 м дым {туман} ?/? +28.8 +23.7 74 +39 +39 очень
душно
1011.3 1007.0
06 16.09 штиль 0 500 м дым {туман} ?/? +32.2 +22.6 57 +42 +42 опасность
перегрева
1008.2 1003.9
09 16.09 штиль 0 600 м дым {туман} ?/? +32.0 +23.7 62 +43 +43 опасность
перегрева
1007.5 1003.2
12 16.09 штиль 0 500 м дым {туман} ?/? +28.1 +24.0 78 +39 +39 очень
душно
1009.1 1004.8 +33.1
15 16.09 штиль 0 600 м дым {туман} ?/? +25.6 +23.9 90 +35 +35 очень
душно
1010.4 1006.0
00 17.09 штиль 0 100 м дым {туман} ?/? +24.4 +23.4 94 +33 +33 очень
душно
1012.7 1008.3 +22.4
03 17.09 штиль 0 100 м дым {туман} ?/? +27.3 +24.6 85 +39 +39 очень
душно
1012.4 1008.1
06 17.09 Ю 2 100 м дым {туман} ?/? +30.8 +24.8 70 +44 +44 опасность
перегрева
1009.7 1005.3
09 17.09 СЗ 2 200 м дым {туман} ?/? +30.0 +24.2 71 +42 +42 опасность
перегрева
1009.1 1004.7
12 17.09 штиль 0 200 м дым {туман} ?/? +26.8 +24.4 87 +38 +38 очень
душно
1010.7 1006.4 +32.3
15 17.09 штиль 0 200 м дым {туман} ?/? +25.2 +24.2 94 +35 +35 очень
душно
1011.8 1007.5
00 18.09 штиль 0 200 м дым {туман} ?/? +24.4 +23.7 96 +33 +33 очень
душно
1013.6 1009.3 +23.4
03 18.09 СЗ 2 200 м дым {туман} ?/? +28.0 +23.6 77 +38 +38 очень
душно
1013.1 1008.8
06 18.09 СВ 2 300 м дым {туман} ?/? +31.8 +24.5 65 +44 +44 опасность
перегрева
1010.0 1005.7
09 18.09 З 2 400 м дым {туман} ?/? +31.8 +24.2 64 +44 +44 опасность
перегрева
1009.1 1004.8
12 18.09 штиль 0 300 м дым {туман} ?/? +27.9 +24.5 82 +39 +39 очень
душно
1010.4 1006.1
15 18.09 штиль 0 300 м дым {туман} ?/? +26.2 +24.4 90 +37 +37 очень
душно
1012.0 1007.6
00 19.09 штиль 0 100 м дым {туман} ?/? +24.4 +23.3 94 +33 +33 очень
душно
1011.8 1007.5 +23.7
03 19.09 штиль 0 100 м дым {туман} ?/? +27.9 +23.9 79 +39 +39 очень
душно
1012.7 1008.4
06 19.09 В 2 200 м дым {туман} ?/? +32.2 +23.9 62 +44 +44 опасность
перегрева
1009.5 1005.2
09 19.09 С 3 500 м дым {туман} ?/? +32.2 +22.6 57 +42 +42 опасность
перегрева
1008.8 1004.5
12 19.09 штиль 0 800 м дым {туман} ?/? +28.7 +20.8 62 +36 +36 очень
душно
1010.0 1005.7 +32.8
15 19.09 штиль 0 600 м дым {туман} ?/? +25.4 +24.2 93 +35 +35 очень
душно
1011.0 1006.7
00 20.09 СЗ 2 300 м дым {туман} ?/? +24.7 +23.4 92 +33 +33 очень
душно
1012.9 1008.6 +23.7
03 20.09 СВ 3 300 м дым {туман} ?/? +27.2 +23.3 79 +37 +37 очень
душно
1012.6 1008.2
06 20.09 штиль 0 200 м дым {туман} ?/? +31.6 +23.7 63 +43 +43 опасность
перегрева
1009.3 1005.0
09 20.09 штиль 0 200 м дым {туман} ?/? +31.7 +23.9 63 +43 +43 опасность
перегрева
1008.2 1003.8
12 20.09 штиль 0 300 м дым {туман} ?/? +27.8 +24.4 82 +39 +39 очень
душно
1010.0 1005.7 +32.8
15 20.09 штиль 0 600 м дым {туман} ?/? +26.1 +24.4 90 +36 +36 очень
душно
1011.1 1006.8
00 21.09 штиль 0 300 м дым {туман} ?/? +24.8 +23.5 92 +33 +33 очень
душно
1013.0 1008.6 +24.0

 

Местоположение метеостанции Муаратевех (Индонезия): широта -0.95 долгота 114.90 высота над уровнем моря 60 м.

В архиве по умолчанию представлена погода в Муаратевехе за последнюю неделю. Архивные данные за месяц целиком и за предыдущие месяцы, начиная с января 2011 года, Вы можете получить, выбрав интересующий диапазон дат из раскрывающегося списка и нажав кнопку "Ввод!".


*Определитесь, кто Вы:
робот инопланетянин человек

Внимание! Время в таблицах - всемирное. Для получения местного времени необходимо прибавить поправку, которая равна 7 ч.

Смотрите также архив погоды в соседних городах и на ближайших метеорологических станциях:

Погода в Паоанкарая (Индонезия) (100 км)
Погода в Баликпапане (Индонезия) (225 км)
Погода в Самаринде (Индонезия) (253 км)
Погода в Банджармасине (Индонезия) (276 км)
Погода на Путусиббау (Индонезия) (295 км)
Погода в Котабару (Индонезия) (309 км)
Погода в Нангапинохе (Индонезия) (353 км)
Погода в Синтанге (Индонезия) (393 км)
Погода в Пангкалан-Буне (Индонезия) (406 км)
Погода в Танджунгредепе (Индонезия) (444 км)

Пояснения к столбцам:

Ветер - указаны скорость ветра в м/с - средняя за 10 мин, порывы в срок и между сроками (в фигурных скобках) и направление, откуда дует ветер: С - северный, СВ - северо-восточный, В - восточный, ЮВ - юго-восточный, Ю - южный, ЮЗ - юго-западный, З - западный, СЗ - северо-западный.
Видимость - горизонтальная дальность видимости в метрах или километрах. При видимости от 1 до 10 км при отсутствии осадков обычно наблюдается дымка, при ухудшении видимости до 1 км и менее - туман. В сухую погоду видимость может ухудшаться дымом, пылью или мглою.
Явления - указаны атмосферные явления, наблюдавшиеся в срок или в последний час перед сроком; фигурными скобками обозначены явления, наблюдавшиеся между сроками (за 1-3 часа до срока); квадратными скобками обозначены град или гололедные отложения с указанием их диаметра в мм.
Облачность - указаны через наклонную черту общая и нижняя облачность в баллах и высота нижней границы облаков в метрах; квадратными скобками обозначены формы облаков: Ci - перистые, Cs - перисто-слоистые, Cc - перисто-кучевые, Ac - высококучевые, As - высокослоистые, Sc - слоисто-кучевые, Ns - слоисто-дождевые, Cu - кучевые, Cb - кучево-дождевые. Подробнее классификацию облаков см. в Атласе облаков (PDF).
T - Температура воздуха - температура, измеренная на высоте 2 м над землей.
Td - Температура точки росы - температура, при понижении до которой содержащийся в воздухе водяной пар достигнет насыщения.
f - Относительная влажность воздуха - влажноcть воздуха, измеренная на высоте 2 м над землей.
Te - Эффективная температура - температура, которую ощущает одетый по сезону человек в тени. Характеристика душности погоды. При расчете учитывается влияние влажности воздуха и скорости ветра на теплоощущения человека.
Tes - Эффективная температура на солнце - температура, которую ощущает человек, с поправкой на солнечный нагрев. Характеристика знойности погоды. Зависит от высоты солнца над горизонтом, облачности и скорости ветра. Ночью, в пасмурную погоду, а также при ветре 12 м/с и более поправка равна нулю.
P - Атмосферное давление - приведенное к уровню моря атмосферное давление.
Po - Атмосферное давление - измеренное на уровне метеостанции атмосферное давление.
Tmin - Минимальная температура - минимум температуры воздуха на высоте 2 м над землей.
Tmax - Максимальная температура - максимум температуры воздуха на высоте 2 м над землей.
R - Количество осадков - Количество выпавших осадков за период времени, мм. При наведении курсора мыши на число - период времени, за который выпало указанное количество осадков.
R24 - Количество осадков - Количество выпавших осадков за 24 часа, мм.
S - Снежный покров - Высота снежного покрова, см. При наведении курсора мыши на число - состояние снежного покрова и степень покрытия местности в баллах.